Flag for U.S.A. Weather past 2 weeks in Corvallis, Oregon, U.S.A.

Now
30 °F

Clear.


Feels Like: 30 °F
Forecast: 29 / 56 °F
Wind: No wind

Location: Corvallis Municipal

Current Time: Mar 4, 2015 at 4:03:07 AM

Latest Report: Mar 4, 2015 at 3:35 AM


Visibility: 10 mi

Pressure: 30.23 "Hg

Humidity: 93%

Dew point: 28 °F

Location of CorvallisLocation

Historic Weather in Corvallis — Graph

°F

Corvallis temperature yesterday

Maximum temperature yesterday: 57 °F (at 1:55 PM)
Minimum temperature yesterday: 30 °F (at 4:15 AM)
Average temperature yesterday: 42 °F

Past Weeks' High & Low Weather Summary

 TemperatureHumidityPressure
High64 °F (Feb 17, 4:15 PM)100% (Mar 3, 7:55 AM)30.49 "Hg (Mar 3, 7:55 AM)
Low25 °F (Feb 23, 6:55 AM)22% (Feb 23, 3:55 PM)29.71 "Hg (Feb 27, 3:55 PM)
Average46 °F72%30.19 "Hg
* Reported Feb 17 2:15 AM — Mar 4 2:55 AM, Corvallis, Weather by CustomWeather, © 2015

Note: Actual official high and low records may vary slightly from our data, if they occured in-between our weather recording intervals... More about our weather records

Advertising

Corvallis weather history for previous 24 hours

 ConditionsComfort  
Time TempWeatherWind HumidityBarometerVisibility
2:55 AM
Wed, Mar 4
32 °FClear.No wind80%30.23 "Hg10 mi
2:35 AM34 °FClear.No wind81%30.23 "Hg10 mi
2:15 AM34 °FClear.5 mph81%30.24 "Hg10 mi
1:55 AM36 °FClear.3 mph81%30.23 "Hg10 mi
1:35 AM34 °FClear.No wind81%30.23 "Hg10 mi
1:15 AM34 °FClear.No wind87%30.23 "Hg10 mi
12:55 AM34 °FClear.3 mph87%30.22 "Hg10 mi
12:35 AM34 °FClear.No wind81%30.21 "Hg10 mi
12:15 AM36 °FClear.6 mph81%30.21 "Hg10 mi
11:55 PM
Tue, Mar 3
36 °FClear.8 mph81%30.21 "Hg10 mi
11:35 PM36 °FClear.8 mph81%30.21 "Hg10 mi
11:15 PM36 °FClear.9 mph81%30.21 "Hg10 mi
10:55 PM36 °FClear.9 mph81%30.21 "Hg10 mi
10:35 PM37 °FClear.9 mph75%30.20 "Hg10 mi
10:15 PM37 °FClear.9 mph81%30.20 "Hg10 mi
9:55 PM37 °FClear.9 mph81%30.20 "Hg10 mi
9:35 PM37 °FClear.9 mph81%30.19 "Hg10 mi
9:15 PM39 °FClear.8 mph81%30.19 "Hg10 mi
8:55 PM37 °FClear.8 mph87%30.19 "Hg10 mi
8:35 PM37 °FClear.8 mph87%30.18 "Hg10 mi
8:15 PM37 °FClear.7 mph87%30.18 "Hg10 mi
7:15 PM43 °FClear.6 mph61%30.18 "Hg10 mi
6:55 PM45 °FClear.6 mph57%30.17 "Hg10 mi
6:35 PM46 °FClear.6 mph53%30.17 "Hg10 mi
6:15 PM48 °FClear.6 mph50%30.17 "Hg10 mi
5:55 PM50 °FSunny.5 mph47%30.17 "Hg10 mi
5:35 PM52 °FSunny.8 mph47%30.17 "Hg10 mi
5:15 PM54 °FSunny.7 mph44%30.17 "Hg10 mi
4:55 PM54 °FSunny.9 mph47%30.16 "Hg10 mi
4:35 PM55 °FSunny.7 mph41%30.17 "Hg10 mi
4:15 PM57 °FSunny.7 mph39%30.17 "Hg10 mi
3:55 PM57 °FSunny.12 mph41%30.18 "Hg10 mi
3:35 PM57 °FSunny.10 mph39%30.18 "Hg10 mi
3:15 PM57 °FSunny.9 mph36%30.18 "Hg10 mi
2:55 PM57 °FSunny.8 mph39%30.18 "Hg10 mi
2:35 PM55 °FSunny.9 mph38%30.18 "Hg10 mi
2:15 PM57 °FSunny.9 mph36%30.18 "Hg10 mi
1:55 PM57 °FSunny.9 mph41%30.19 "Hg10 mi
1:35 PM55 °FSunny.5 mph38%30.19 "Hg10 mi
1:15 PM55 °FSunny.8 mph44%30.19 "Hg10 mi
12:55 PM55 °FSunny.3 mph47%30.20 "Hg10 mi
12:35 PM54 °FSunny.6 mph47%30.21 "Hg10 mi
12:15 PM52 °FSunny.3 mph54%30.22 "Hg10 mi
11:55 AM52 °FSunny.5 mph54%30.22 "Hg10 mi
11:35 AM50 °FSunny.No wind58%30.23 "Hg10 mi
11:15 AM48 °FSunny.5 mph62%30.22 "Hg10 mi
10:55 AM46 °FSunny.3 mph66%30.23 "Hg10 mi
10:35 AM46 °FSunny.6 mph66%30.23 "Hg10 mi
10:15 AM45 °FSunny.6 mph71%30.24 "Hg10 mi
9:55 AM43 °FSunny.3 mph81%30.24 "Hg10 mi
9:35 AM41 °FSunny.3 mph76%30.24 "Hg10 mi
9:15 AM39 °FSunny.No wind87%30.24 "Hg10 mi
8:55 AM37 °FSunny.No wind87%30.23 "Hg10 mi
8:35 AM36 °FSunny.No wind93%30.22 "Hg10 mi
8:15 AM34 °FSunny.No wind93%30.21 "Hg10 mi
7:55 AM30 °FSunny.No wind100%30.21 "Hg10 mi
7:35 AM30 °FSunny.No wind93%30.20 "Hg10 mi
7:15 AM30 °FSunny.No wind93%30.20 "Hg10 mi
6:55 AM30 °FSunny.No wind86%30.20 "Hg10 mi
6:35 AM30 °FClear.No wind93%30.19 "Hg10 mi
6:15 AM30 °FClear.No wind86%30.19 "Hg10 mi
5:55 AM30 °FClear.No wind93%30.19 "Hg10 mi
5:35 AM30 °FClear.3 mph93%30.18 "Hg10 mi
5:15 AM30 °FClear.3 mph86%30.18 "Hg10 mi
4:55 AM30 °FClear.No wind93%30.17 "Hg10 mi
4:35 AM30 °FClear.3 mph93%30.18 "Hg10 mi
4:15 AM30 °FClear.No wind86%30.17 "Hg10 mi
Weather by CustomWeather, © 2015

See weather overviewHow to use our weather pages